This is the latest recevied weather packets stored in our database for station/object W4ZHA. If no packets are shown the sender has not sent any weather packets the latest 10 day(s).
| Time | Temp. | Humidity | Pressure | Rain* | Wind** | Luminosity | Snow |
|---|---|---|---|---|---|---|---|
| 1777858670 | 12.78° C | 67% | 1017.2 hPa | 0 mm | - | 0 W/m² | - |
| 1777858368 | 12.78° C | 66% | 1017.6 hPa | 0 mm | - | 0 W/m² | - |
| 1777858063 | 12.78° C | 68% | 1017.2 hPa | 0 mm | - | 0 W/m² | - |
| 1777857762 | 13.33° C | 68% | 1017.2 hPa | 0 mm | - | 0 W/m² | - |
| 1777857458 | 13.33° C | 67% | 1017.2 hPa | 0 mm | - | 0 W/m² | - |
| 1777857155 | 13.89° C | 67% | 1016.8 hPa | 0 mm | - | 0 W/m² | - |
| 1777856851 | 13.89° C | 67% | 1017.2 hPa | 0 mm | - | 0 W/m² | - |
| 1777856547 | 13.89° C | 66% | 1017.2 hPa | 0 mm | - | 0 W/m² | - |
| 1777856244 | 13.89° C | 66% | 1016.8 hPa | 0 mm | - | 0 W/m² | - |
| 1777855941 | 14.44° C | 64% | 1017.2 hPa | 0 mm | - | 0 W/m² | - |
| 1777855639 | 14.44° C | 62% | 1016.8 hPa | 0 mm | - | 0 W/m² | - |
| 1777855335 | 15° C | 61% | 1016.8 hPa | 0 mm | - | 0 W/m² | - |
| 1777855032 | 15° C | 59% | 1016.8 hPa | 0 mm | - | 0 W/m² | - |
| 1777854729 | 15.56° C | 57% | 1016.8 hPa | 0 mm | - | 0 W/m² | - |
| 1777854426 | 16.11° C | 56% | 1016.8 hPa | 0 mm | - | 0 W/m² | - |
| 1777854123 | 16.67° C | 55% | 1016.8 hPa | 0 mm | - | 1 W/m² | - |
| 1777853821 | 16.67° C | 55% | 1016.8 hPa | 0 mm | - | 4 W/m² | - |
| 1777853517 | 17.22° C | 53% | 1016.8 hPa | 0 mm | - | 6 W/m² | - |
| 1777853214 | 17.22° C | 53% | 1016.8 hPa | 0 mm | - | 9 W/m² | - |
| 1777852911 | 17.78° C | 52% | 1016.5 hPa | 0 mm | - | 12 W/m² | - |
| 1777852609 | 18.33° C | 53% | 1016.8 hPa | 0 mm | - | 16 W/m² | - |
| 1777852305 | 18.33° C | 52% | 1016.8 hPa | 0 mm | - | 18 W/m² | - |
| 1777852004 | 18.89° C | 51% | 1016.8 hPa | 0 mm | - | 21 W/m² | - |
| 1777851702 | 18.89° C | 51% | 1017.2 hPa | 0 mm | - | 23 W/m² | - |
| 1777851398 | 20° C | 57% | 1016.8 hPa | 0 mm | - | 25 W/m² | - |
* Rain latest hour (hover to see other rain measurements)
** Current wind speed in m/s (hover to see current wind gust speed)